Baton Rouge, LA

2:49 AM CST on January 18, 2018 (GMT -0600)
Baton Rouge Metro-Ryan

Weather History for KBTR - June, 2014

Change the Weather History Date:

Monday, June 9, 2014

  Actual Average Record
Temperature  
Mean Temperature 82 °F 80 °F  
Max Temperature 91 °F 90 °F 98 °F (1963)
Min Temperature 73 °F 71 °F 60 °F (1983)
Degree Days  
Heating Degree Days 0 0  
Month to date heating degree days 0 0  
Since 1 June heating degree days 0 0  
Since 1 July heating degree days 1984 1555  
Cooling Degree Days 17 15  
Month to date cooling degree days 140 133  
Year to date cooling degree days 646 698  
Since 1 June cooling degree days 140 133  
Growing Degree Days 32 (Base 50)    
Moisture  
Dew Point 71 °F    
Average Humidity 70    
Maximum Humidity 88    
Minimum Humidity 52    
Precipitation  
Precipitation 0.00 in 0.19 in 3.00 in (1962)
Month to date precipitation 1.28 1.68  
Year to date precipitation 25.62 26.20  
Snow  
Snow 0.00 in - - ()
Month to date snowfall 0.0  
Since 1 June snowfall 0.0  
Since 1 July snowfall 0.4  
Snow Depth 0.00 in    
Sea Level Pressure  
Sea Level Pressure 29.88 in    
Wind  
Wind Speed 11 mph (South)    
Max Wind Speed 21 mph    
Max Gust Speed 32 mph    
Visibility 10 miles    
Events      
T = Trace of Precipitation, MM = Missing Value Source: NWS Daily Summary

Daily Weather History Graph

Daily Weather History Graph

Search for Another Location

Airport or City:

Trip Planner

Search our weather history database for the weather conditions in past years. The results will help you decide how hot, cold, wet, or windy it might be!

Date:

Astronomy

Jun. 09, 2014 Rise Set
Actual Time 6:01 AM CDT 8:06 PM CDT
Civil Twilight 5:34 AM CDT 8:33 PM CDT
Nautical Twilight 5:00 AM CDT 9:07 PM CDT
Astronomical Twilight 4:24 AM CDT 9:43 PM CDT
Moon 4:39 PM CDT (6/9) 3:14 AM CDT (6/9)
Length of Visible Light 14h 59m
Length of Day
14h 04m
Waxing Gibbous, 85% of the Moon is Illuminated
Jun 9
Waxing Gibbous
Jun 12
Full
Jun 19
Last Quarter
Jun 27
New
Jul 5
First Quarter

Hourly Weather History & Observations

Time (CDT) Temp. Heat Index Dew Point Humidity Pressure Visibility Wind Dir Wind Speed Gust Speed Precip Events Conditions
12:53 AM 79.0 °F - 73.0 °F 82% 29.93 in 10.0 mi SW 9.2 mph - N/A   Mostly Cloudy
1:53 AM 78.1 °F - 73.0 °F 84% 29.91 in 10.0 mi South 8.1 mph - N/A   Scattered Clouds
2:28 AM 78.1 °F - 73.0 °F 84% 29.92 in 10.0 mi South 6.9 mph - N/A   Mostly Cloudy
2:53 AM 78.1 °F - 73.0 °F 84% 29.91 in 10.0 mi South 5.8 mph - N/A   Overcast
3:14 AM 77.0 °F - 73.0 °F 88% 29.91 in 10.0 mi South 6.9 mph - N/A   Scattered Clouds
3:53 AM 77.0 °F - 73.0 °F 88% 29.90 in 10.0 mi South 4.6 mph - N/A   Partly Cloudy
4:53 AM 77.0 °F - 73.0 °F 88% 29.89 in 10.0 mi South 8.1 mph - N/A   Partly Cloudy
5:53 AM 77.0 °F - 73.0 °F 88% 29.89 in 10.0 mi South 6.9 mph - N/A   Partly Cloudy
6:53 AM 79.0 °F - 73.0 °F 82% 29.88 in 10.0 mi South 10.4 mph - N/A   Partly Cloudy
7:53 AM 82.0 °F 87.4 °F 73.0 °F 74% 29.88 in 10.0 mi South 12.7 mph - N/A   Scattered Clouds
8:00 AM 82.0 °F 87.9 °F 73.9 °F 76% 29.89 in 10.0 mi South 13.8 mph - N/A   Mostly Cloudy
8:53 AM 82.9 °F 88.8 °F 73.0 °F 72% 29.90 in 10.0 mi SSW 9.2 mph - N/A   Mostly Cloudy
9:37 AM 84.9 °F 90.7 °F 72.0 °F 65% 29.90 in 10.0 mi South 17.3 mph - N/A   Mostly Cloudy
9:53 AM 82.4 °F 87.2 °F 71.6 °F 70% 29.90 in 10.0 mi SSW 11.5 mph - N/A   Mostly Cloudy
10:53 AM 87.1 °F 93.6 °F 72.0 °F 61% 29.90 in 10.0 mi South 11.5 mph 21.9 mph N/A   Mostly Cloudy
11:53 AM 87.1 °F 92.8 °F 71.1 °F 59% 29.89 in 10.0 mi SW 15.0 mph 21.9 mph N/A   Mostly Cloudy
1:53 PM 90.0 °F 96.4 °F 71.1 °F 54% 29.85 in 10.0 mi South 12.7 mph 23.0 mph N/A   Scattered Clouds
2:53 PM 89.1 °F 94.1 °F 70.0 °F 53% 29.83 in 10.0 mi South 15.0 mph 23.0 mph N/A   Mostly Cloudy
3:53 PM 90.0 °F 94.5 °F 69.1 °F 50% 29.84 in 10.0 mi SW 17.3 mph 27.6 mph N/A   Mostly Cloudy
4:53 PM 88.0 °F 92.9 °F 70.0 °F 55% 29.84 in 10.0 mi SW 16.1 mph 25.3 mph N/A   Scattered Clouds
5:53 PM 86.0 °F 90.7 °F 70.0 °F 59% 29.85 in 10.0 mi SSW 15.0 mph - N/A   Mostly Cloudy
6:53 PM 84.0 °F 88.4 °F 70.0 °F 63% 29.86 in 10.0 mi SW 12.7 mph - N/A   Partly Cloudy
7:19 PM 77.0 °F - 68.0 °F 74% 29.88 in 10.0 mi WNW 9.2 mph 28.8 mph N/A   Mostly Cloudy
7:53 PM 75.0 °F - 68.0 °F 79% 29.87 in 10.0 mi NW 6.9 mph - 0.00 in   Mostly Cloudy
8:53 PM 73.0 °F - 68.0 °F 84% 29.85 in 10.0 mi ESE 6.9 mph - 0.00 in   Mostly Cloudy
9:53 PM 73.9 °F - 68.0 °F 82% 29.85 in 10.0 mi ESE 6.9 mph - N/A   Clear
10:53 PM 75.0 °F - 69.1 °F 82% 29.86 in 10.0 mi SSE 5.8 mph - N/A   Clear
11:53 PM 77.0 °F - 72.0 °F 84% 29.86 in 10.0 mi South 8.1 mph - N/A   Clear